x

8452944 - Conimicut Light, Ri (cptr1) Weather Station

6:54 - Sat 10th Dec 2016 All times are EST. -5 hours from GMT.

  • Wind
    13mph, 16mph gusts
  • Sea Temp 44°f
  • Luft Temp 23°f
  • Sea Pressure 1025.8mb
  • 8452944 - Conimicut Light, Ri
  • 8452944 - Conimicut Light, Ri

More Historic Weather Station data

Upgrade to MSW Pro to gain access to the past 30 days of data for over 8000 Wavebouys and Weather Stations around the globe.

Join Pro

Comparision Forecast

View Surf forecast
   
Sa 12/10 6:54 13 16 mph 1025.8mb 44f 23f
6:48 14 15 mph 1025.7mb 44f 23f
6:42 13 15 mph 1025.7mb 44f 23f
6:36 11 15 mph 1025.6mb 44f 23f
6:30 13 15 mph 1025.5mb 44f 22f
6:24 11 15 mph 1025.5mb 44f 23f
6:18 11 15 mph 1025.6mb 44f 23f
6:12 11 14 mph 1025.5mb 44f 22f
6:06 9 13 mph 1025.3mb 44f 22f
6:00 8 10 mph 1025.2mb 44f 22f
5:54 10 13 mph 1025.2mb 44f 23f
5:48 11 15 mph 1025.2mb 44f 23f
5:42 11 14 mph 1025.2mb 44f 23f
5:36 10 13 mph 1025mb 44f 24f
5:30 10 14 mph 1024.8mb 44f 23f
5:24 9 14 mph 1024.7mb 44f 24f
5:18 9 14 mph 1024.7mb 44f 24f
5:12 11 16 mph 1024.6mb 44f 24f
5:06 14 18 mph 1024.6mb 44f 24f
5:00 14 16 mph 1024.5mb 44f 24f
4:54 13 16 mph 1024.6mb 44f 24f
4:48 13 16 mph 1024.5mb 44f 24f
4:42 14 17 mph 1024.5mb 44f 24f
4:36 15 17 mph 1024.4mb 44f 24f
4:30 15 18 mph 1024.3mb 44f 24f
4:24 14 16 mph 1024.2mb 44f 24f
4:18 13 17 mph 1024.2mb 44f 24f
4:12 14 16 mph 1024.1mb 44f 24f
4:06 11 17 mph 1024.2mb 44f 24f
4:00 14 15 mph 1024mb 44f 24f
3:54 11 15 mph 1024.3mb 44f 25f
3:48 13 15 mph 1024.2mb 44f 24f
3:42 10 14 mph 1024.3mb 44f 24f
3:36 13 17 mph 1024.3mb 44f 25f
3:30 13 15 mph 1024.2mb 44f 25f
3:24 9 14 mph 1024mb 44f 25f
3:18 10 14 mph 1024mb 44f 25f
3:12 11 16 mph 1023.9mb 44f 25f
3:06 13 16 mph 1024mb 44f 25f
3:00 13 15 mph 1023.9mb 44f 25f
2:54 10 15 mph 1023.7mb 44f 25f
2:48 13 16 mph 1023.6mb 44f 26f
2:42 11 16 mph 1023.6mb 44f 26f
2:36 14 17 mph 1023.4mb 44f 26f
2:30 13 17 mph 1023.1mb 44f 26f
2:24 14 17 mph 1023.2mb 44f 26f
2:18 13 17 mph 1023.2mb 44f 26f
2:12 13 18 mph 1023.2mb 44f 26f
2:06 13 15 mph 1023.1mb 44f 26f
2:00 11 17 mph 1022.9mb 44f 26f
1:54 13 15 mph 1022.9mb 44f 26f
1:48 13 14 mph 1022.9mb 44f 26f
1:42 13 16 mph 1022.9mb 44f 26f
1:36 14 16 mph 1022.8mb 44f 26f
1:30 14 17 mph 1022.8mb 44f 26f
1:24 11 15 mph 1022.8mb 44f 26f
1:18 13 14 mph 1022.9mb 44f 26f
1:12 13 15 mph 1022.8mb 44f 27f
1:06 13 15 mph 1022.8mb 44f 26f
1:00 14 16 mph 1022.8mb 44f 26f
12:54 14 15 mph 1022.8mb 45f 27f
12:48 10 13 mph 1022.8mb - -
12:42 10 13 mph 1022.8mb - -
12:36 8 11 mph 1022.7mb - -
12:30 9 11 mph 1022.7mb 45f 26f
12:24 10 14 mph 1022.6mb 45f 27f
12:18 11 14 mph 1022.6mb 45f 27f
12:12 13 16 mph 1022.6mb 45f 27f
12:06 11 18 mph 1022.6mb 45f 27f
12:00 13 17 mph 1022.5mb 45f 27f
Fr 12/09 11:54 14 18 mph 1022.6mb 45f 28f
11:48 16 18 mph 1022.5mb 45f 27f
11:42 16 18 mph 1022.4mb 45f 27f
11:36 18 26 mph 1022.5mb 45f 28f
11:30 17 24 mph 1022.4mb 45f 28f
11:24 18 23 mph 1022.4mb 45f 28f
11:18 14 18 mph 1022.5mb 45f 28f
11:12 16 20 mph 1022.4mb 45f 28f
11:06 17 21 mph 1022.4mb 45f 28f
11:00 17 23 mph 1022.3mb 45f 28f
10:54 14 18 mph 1022.4mb 45f 28f
10:48 15 20 mph 1022.2mb 45f 28f
10:42 16 20 mph 1022mb 45f 28f
10:36 16 18 mph 1022mb 45f 28f
10:30 16 18 mph 1021.9mb 45f 28f
10:24 15 20 mph 1022mb 46f 28f
10:18 16 20 mph 1022mb 46f 28f
10:12 15 20 mph 1021.9mb 46f 28f
10:06 17 20 mph 1021.9mb 46f 28f
10:00 17 21 mph 1021.9mb 46f 29f
9:54 18 22 mph 1021.9mb 46f 28f
9:48 16 21 mph 1021.8mb 46f 28f
9:42 17 22 mph 1021.8mb 46f 28f
9:36 17 25 mph 1021.7mb 46f 28f
9:30 20 25 mph 1021.6mb 46f 28f
9:24 21 24 mph 1021.6mb 46f 29f
9:18 17 22 mph 1021.7mb 46f 29f
9:12 18 22 mph 1021.7mb 46f 29f
9:06 18 23 mph 1021.6mb 46f 29f
9:00 20 23 mph 1021.5mb 46f 29f
8:54 18 21 mph 1021.6mb 46f 29f
8:48 20 24 mph 1021.5mb 46f 29f
8:42 21 25 mph 1021.5mb 46f 29f
8:36 18 24 mph 1021.4mb 46f 29f
8:30 22 25 mph 1021.4mb 46f 30f
8:24 23 28 mph 1021.3mb 46f 29f
8:18 21 29 mph 1021.3mb 46f 30f
8:12 22 26 mph 1021.2mb 46f 30f
8:06 21 24 mph 1021.2mb 46f 30f
8:00 20 26 mph 1021.1mb 46f 30f
7:54 21 25 mph 1021mb 46f 30f
7:48 20 24 mph 1020.8mb 46f 30f
7:42 21 25 mph 1020.7mb 46f 30f
7:36 21 24 mph 1020.7mb 46f 30f
7:30 23 25 mph 1020.6mb 46f 30f
7:24 22 26 mph 1020.6mb 46f 31f
7:18 20 26 mph 1020.6mb 46f 31f
7:12 22 31 mph 1020.5mb 46f 31f
7:06 23 30 mph 1020.3mb 46f 31f
7:00 20 28 mph 1020.2mb 46f 31f
6:54 26 30 mph 1019.9mb 46f 31f
6:48 24 29 mph 1019.8mb 46f 31f
6:42 21 25 mph 1019.8mb 46f 31f
6:36 25 28 mph 1019.8mb 46f 31f
6:30 17 23 mph 1019.7mb 46f 32f
6:24 20 25 mph 1019.5mb 46f 32f
6:18 22 26 mph 1019.3mb 46f 32f
6:12 23 26 mph 1019.1mb 46f 32f
6:06 21 24 mph 1019.2mb 46f 32f
6:00 23 29 mph 1019mb 46f 32f
5:54 23 30 mph 1018.7mb 46f 32f
5:48 25 31 mph 1018.5mb 46f 33f
5:42 25 31 mph 1018.4mb 46f 33f
5:36 24 26 mph 1018.4mb 46f 33f
5:30 24 31 mph 1018.3mb 46f 33f
5:24 23 30 mph 1018.2mb 46f 33f
5:18 23 31 mph 1018.1mb 46f 33f
5:12 21 26 mph 1018mb 46f 34f
5:06 24 26 mph 1018mb 46f 34f
5:00 21 24 mph 1017.9mb 46f 34f
4:54 21 25 mph 1017.9mb 46f 34f
4:48 22 29 mph 1017.8mb 46f 34f
4:42 23 26 mph 1017.7mb 46f 34f
4:36 25 31 mph 1017.4mb 46f 34f
4:30 21 23 mph 1017.5mb 46f 34f
4:24 23 25 mph 1017.3mb 46f 34f
4:18 24 29 mph 1017.2mb 46f 34f
4:12 22 26 mph 1017.1mb 46f 34f
4:06 22 28 mph 1017mb 46f 34f
4:00 22 25 mph 1016.8mb 46f 35f
3:54 23 32 mph 1016.7mb 46f 35f
3:48 21 26 mph 1016.6mb 46f 35f
3:42 22 26 mph 1016.4mb 46f 35f
3:36 23 30 mph 1016.2mb 46f 35f
3:30 22 28 mph 1016.1mb 46f 35f
3:24 22 31 mph 1016.2mb 46f 35f
3:18 23 30 mph 1016.1mb 46f 35f
3:12 26 31 mph 1015.9mb 46f 35f
3:06 24 32 mph 1015.7mb 47f 35f
3:00 24 30 mph 1015.9mb 47f 35f
2:54 25 31 mph 1016.1mb 47f 35f
2:48 26 30 mph 1015.9mb 47f 35f
2:42 28 34 mph 1015.6mb 47f 35f
2:36 25 36 mph 1015.7mb 47f 35f
2:30 31 36 mph 1015.6mb 47f 35f
2:24 22 29 mph 1015.3mb 47f 36f
2:18 25 30 mph 1015.3mb 47f 35f
2:12 24 34 mph 1015mb 46f 36f
2:06 23 29 mph 1014.9mb 46f 36f
2:00 26 31 mph 1015mb 46f 35f
1:54 29 33 mph 1014.9mb 46f 35f
1:48 28 31 mph 1014.8mb 46f 35f
1:42 28 32 mph 1014.8mb 46f 35f
1:36 26 34 mph 1014.8mb 46f 36f
1:30 29 34 mph 1014.7mb 46f 35f
1:24 25 37 mph 1014.7mb 46f 36f
1:18 28 33 mph 1014.5mb 46f 35f
1:12 26 34 mph 1014.7mb 46f 36f
1:06 23 26 mph 1014.6mb 46f 36f
1:00 23 34 mph 1014.7mb 45f 35f
12:54 25 30 mph 1014.7mb 45f 35f
12:48 24 28 mph 1014.9mb 45f 35f
12:42 22 30 mph 1014.7mb 45f 36f
12:36 28 32 mph 1014.8mb 46f 35f
12:30 31 36 mph 1014.5mb 46f 35f
12:24 29 33 mph 1014.5mb 46f 35f
12:18 28 31 mph 1014.8mb 46f 35f
12:12 26 32 mph 1014.7mb 46f 35f
12:06 22 30 mph 1014.6mb 46f 35f
12:00 25 31 mph 1014.6mb 46f 35f
11:54 26 33 mph 1014.7mb 46f 35f
11:48 24 30 mph 1015.1mb 46f 35f
11:42 23 30 mph 1015.2mb 46f 36f
11:36 22 28 mph 1015.2mb 45f 35f
11:30 24 30 mph 1015mb 45f 35f
11:24 23 31 mph 1015.1mb 45f 35f
11:18 25 31 mph 1015.1mb 45f 35f
11:12 25 29 mph 1015.1mb 45f 35f
11:06 24 29 mph 1015.1mb 45f 35f
11:00 24 29 mph 1015.2mb 45f 35f
10:54 25 29 mph 1015.1mb 45f 34f
10:48 24 29 mph 1015.2mb 45f 35f
10:42 25 28 mph 1015.3mb 45f 34f
10:36 22 29 mph 1015.3mb 45f 35f
10:30 23 29 mph 1015.3mb 45f 35f
10:24 25 31 mph 1015.4mb 45f 34f
10:18 28 31 mph 1015.4mb 45f 34f
10:12 26 32 mph 1015.4mb 45f 34f
10:06 22 26 mph 1015.4mb 45f 35f
10:00 25 31 mph 1015.4mb 45f 34f
9:54 25 31 mph 1015.3mb 44f 34f
9:48 25 29 mph 1015.4mb 44f 34f
9:42 24 31 mph 1015.2mb 44f 34f
9:36 28 32 mph 1015.1mb 44f 34f
9:30 24 31 mph 1015mb 44f 35f
9:24 26 31 mph 1015mb 44f 34f
9:18 25 31 mph 1015mb 44f 35f
9:12 24 29 mph 1015mb 44f 34f
9:06 23 28 mph 1014.9mb 44f 34f
9:00 21 26 mph 1014.8mb 44f 35f
8:54 23 29 mph 1014.7mb 44f 34f
8:48 17 26 mph 1014.8mb 44f 34f
8:42 22 26 mph 1014.6mb 44f 34f
8:36 17 24 mph 1014.5mb 44f 34f
8:30 16 22 mph 1014.5mb 44f 33f
8:24 15 20 mph 1014.4mb 44f 33f
8:18 17 20 mph 1014.4mb 44f 33f
8:12 15 20 mph 1014.3mb 44f 33f
8:06 15 20 mph 1014.3mb 44f 32f
8:00 16 23 mph 1014.2mb 44f 32f
7:54 14 20 mph 1014.2mb 44f 32f
7:48 14 16 mph 1014.1mb 44f 32f
7:42 14 16 mph 1014.1mb 44f 32f
7:36 15 20 mph 1014mb 44f 32f
7:30 16 17 mph 1014mb 44f 32f
7:24 15 21 mph 1013.8mb 44f 32f
7:18 15 20 mph 1013.8mb 44f 31f
7:12 14 18 mph 1013.8mb 44f 32f
7:06 14 18 mph 1013.7mb 44f 32f
7:00 15 18 mph 1013.5mb 44f 31f
6:54 11 17 mph 1013.5mb 44f 32f
6:48 13 16 mph 1013.5mb 44f 31f
6:42 14 17 mph 1013.4mb 44f 32f
6:36 13 17 mph 1013.4mb 44f 31f
6:30 14 17 mph 1013.4mb 45f 31f
6:24 13 15 mph 1013.2mb 45f 32f
6:18 10 15 mph 1013.4mb 45f 31f
6:12 9 14 mph 1013.3mb 45f 32f
6:06 11 14 mph 1013.3mb 45f 32f
6:00 14 16 mph 1013.2mb 45f 32f
5:54 14 15 mph 1013.1mb 45f 32f
5:48 14 16 mph 1013mb 45f 32f
5:42 14 17 mph 1013mb 45f 32f
5:36 13 16 mph 1013.1mb 45f 32f
5:30 14 17 mph 1013.1mb 46f 32f
5:24 14 17 mph 1013.1mb 46f 32f
5:18 14 18 mph 1013mb 46f 32f
5:12 14 18 mph 1013mb 46f 32f
5:06 14 16 mph 1012.9mb 46f 32f
5:00 16 20 mph 1012.8mb 46f 32f
4:54 16 18 mph 1012.9mb 46f 32f
4:48 14 15 mph 1012.8mb 46f 32f
4:42 13 18 mph 1012.7mb 46f 33f
4:36 14 18 mph 1012.7mb 46f 33f
4:30 14 20 mph 1012.6mb 46f 33f
4:24 15 17 mph 1012.6mb 46f 33f
4:18 13 16 mph 1012.5mb 46f 33f
4:12 14 18 mph 1012.5mb 46f 32f
4:06 15 20 mph 1012.5mb 46f 32f
4:00 14 18 mph 1012.4mb 46f 33f
3:54 15 17 mph 1012.4mb 46f 33f
3:48 14 17 mph 1012.3mb 46f 33f
3:42 15 16 mph 1012.3mb 46f 33f
3:36 14 17 mph 1012.3mb 46f 33f
3:30 15 17 mph 1012.2mb 46f 33f
3:24 14 17 mph 1012.3mb 46f 33f
3:18 15 18 mph 1012.3mb 46f 33f
3:12 15 20 mph 1012.3mb 46f 33f
3:06 14 17 mph 1012.3mb 46f 33f
3:00 15 18 mph 1012.3mb 46f 33f
2:54 14 17 mph 1012.3mb 46f 33f
2:48 11 14 mph 1012.3mb 46f 33f
2:42 11 14 mph 1012.2mb 46f 33f
2:36 10 16 mph 1012.2mb 46f 33f
2:30 11 14 mph 1012.2mb 46f 33f
2:24 10 14 mph 1012.1mb 46f 33f
2:18 10 14 mph 1012mb 46f 33f
2:12 8 11 mph 1011.9mb 46f 33f
2:06 9 11 mph 1011.9mb 46f 33f
2:00 10 11 mph 1011.9mb 46f 33f
1:54 9 14 mph 1011.9mb 47f 33f
1:48 10 14 mph 1011.8mb 47f 33f
1:42 13 16 mph 1011.7mb 47f 34f
1:36 10 15 mph 1011.8mb 47f 34f
1:30 14 18 mph 1011.8mb 47f 34f
1:24 10 15 mph 1011.7mb 47f 34f
1:18 11 15 mph 1011.7mb 47f 34f
1:12 11 16 mph 1011.6mb 47f 34f
1:06 13 16 mph 1011.6mb 47f 34f
1:00 14 18 mph 1011.5mb 47f 34f
12:54 14 21 mph 1011.6mb 47f 34f
12:48 16 18 mph 1011.6mb - -
12:42 15 20 mph 1011.5mb - -
12:36 15 20 mph 1011.5mb - -
12:30 17 21 mph 1011.5mb 46f 34f
12:24 15 20 mph 1011.5mb 46f 34f
12:18 14 17 mph 1011.5mb 46f 34f
12:12 15 21 mph 1011.5mb 46f 35f
12:06 13 15 mph 1011.5mb 46f 35f
12:00 13 15 mph 1011.5mb 46f 35f
Do 12/08 11:54 11 13 mph 1011.4mb 46f 35f
11:48 10 13 mph 1011.4mb 46f 35f
11:42 11 20 mph 1011.4mb 46f 35f
11:36 11 17 mph 1011.5mb 46f 35f
11:30 11 15 mph 1011.6mb 46f 35f
11:24 13 17 mph 1011.6mb 46f 35f
11:18 16 18 mph 1011.6mb 46f 36f
11:12 14 17 mph 1011.6mb 46f 36f
11:06 13 17 mph 1011.6mb 46f 36f
11:00 14 16 mph 1011.6mb 46f 36f
10:54 13 18 mph 1011.6mb 46f 36f
10:48 14 17 mph 1011.7mb 46f 36f
10:42 14 17 mph 1011.6mb 47f 36f
10:36 14 15 mph 1011.6mb 47f 36f
10:30 16 20 mph 1011.5mb 47f 36f
10:24 13 15 mph 1011.5mb 47f 36f
10:18 14 16 mph 1011.5mb 47f 36f
10:12 14 17 mph 1011.4mb 47f 37f
10:06 15 17 mph 1011.4mb 47f 36f
10:00 13 17 mph 1011.3mb 47f 37f
9:54 13 17 mph 1011.2mb 47f 36f
9:48 10 13 mph 1011.2mb 47f 36f
9:42 11 14 mph 1011.1mb 46f 36f
9:36 11 14 mph 1011.1mb 46f 37f
9:30 14 16 mph 1011mb 46f 37f
9:24 14 16 mph 1010.9mb 46f 37f
9:18 14 17 mph 1010.9mb 46f 37f
9:12 14 16 mph 1010.9mb 46f 37f
9:06 14 18 mph 1010.8mb 46f 38f
9:00 14 17 mph 1010.8mb 46f 38f
8:54 15 17 mph 1010.8mb 46f 38f
8:48 15 18 mph 1010.8mb 46f 38f
8:42 15 17 mph 1010.9mb 46f 38f
8:36 11 14 mph 1010.9mb 46f 38f
8:30 11 14 mph 1010.8mb 46f 38f
8:24 11 14 mph 1010.8mb 46f 38f
8:18 13 17 mph 1010.8mb 46f 38f
8:12 13 15 mph 1010.8mb 46f 38f
8:06 10 14 mph 1010.8mb 45f 38f
8:00 13 16 mph 1010.8mb 45f 38f
7:54 14 16 mph 1010.7mb 45f 38f
7:48 14 16 mph 1010.7mb 45f 39f
7:42 14 16 mph 1010.6mb 45f 39f
7:36 13 15 mph 1010.6mb 45f 39f
7:30 13 16 mph 1010.6mb 45f 39f
7:24 10 13 mph 1010.7mb 45f 38f
7:18 10 13 mph 1010.7mb 45f 38f
7:12 10 14 mph 1010.7mb 45f 38f
7:06 10 14 mph 1010.6mb 46f 38f
7:00 9 11 mph 1010.6mb 46f 38f
6:54 9 11 mph 1010.6mb 46f 38f
6:48 10 13 mph 1010.6mb 46f 39f
6:42 11 17 mph 1010.6mb 46f 39f
6:36 15 17 mph 1010.6mb 46f 39f
6:30 15 18 mph 1010.5mb 46f 39f
6:24 15 18 mph 1010.4mb 46f 39f
6:18 13 15 mph 1010.4mb 46f 40f
6:12 11 14 mph 1010.3mb 46f 40f
6:06 10 11 mph 1010.1mb 46f 40f
6:00 9 11 mph 1010.1mb 46f 40f
5:54 9 11 mph 1010.1mb 46f 40f
5:48 9 11 mph 1010mb 46f 40f
5:42 9 11 mph 1010.1mb 46f 40f
5:36 9 13 mph 1010.1mb 46f 40f
5:30 10 13 mph 1010mb 46f 40f
5:24 10 13 mph 1010mb 46f 40f
5:18 10 14 mph 1010mb 46f 40f
5:12 11 14 mph 1009.9mb 46f 40f
5:06 10 14 mph 1009.8mb 46f 40f
5:00 11 14 mph 1009.9mb 46f 40f
4:54 10 13 mph 1009.9mb 46f 40f
4:48 9 10 mph 1009.8mb 46f 41f
4:42 8 10 mph 1009.8mb 46f 41f
4:36 9 11 mph 1009.8mb 46f 41f
4:30 8 10 mph 1009.7mb 46f 41f
4:24 10 11 mph 1009.6mb 46f 41f
4:18 10 13 mph 1009.7mb 46f 41f
4:12 10 14 mph 1009.7mb 46f 41f
4:06 11 15 mph 1009.7mb 46f 41f
4:00 14 15 mph 1009.7mb 46f 41f
3:54 11 18 mph 1009.6mb 46f 41f
3:48 15 17 mph 1009.6mb 46f 41f
3:42 14 16 mph 1009.6mb 46f 42f
3:36 13 15 mph 1009.5mb 46f 42f
3:30 11 14 mph 1009.6mb 46f 42f
3:24 9 15 mph 1009.5mb 46f 42f
3:18 13 15 mph 1009.5mb 46f 42f
3:12 13 15 mph 1009.5mb 46f 42f
3:06 13 16 mph 1009.4mb 46f 42f
3:00 11 14 mph 1009.4mb 46f 42f
2:54 10 13 mph 1009.4mb 46f 42f
2:48 8 13 mph 1009.3mb 46f 41f
2:42 10 11 mph 1009.3mb 47f 41f
2:36 10 13 mph 1009.3mb 47f 42f
2:30 10 14 mph 1009.3mb 47f 42f
2:24 11 14 mph 1009.3mb 47f 42f
2:18 10 14 mph 1009.2mb 47f 42f
2:12 10 14 mph 1009.1mb 47f 42f
2:06 11 16 mph 1009.2mb 47f 42f
2:00 14 16 mph 1009.2mb 47f 42f
1:54 11 14 mph 1009.2mb 47f 42f
1:48 13 14 mph 1009.2mb 47f 42f
1:42 9 11 mph 1009mb 47f 42f
1:36 9 11 mph 1009.2mb 47f 42f
1:30 9 14 mph 1009.2mb 47f 42f
1:24 8 13 mph 1009.3mb 47f 42f
1:18 11 14 mph 1009.3mb 47f 42f
1:12 11 14 mph 1009.5mb 47f 42f
1:06 10 13 mph 1009.6mb 47f 42f
1:00 10 14 mph 1009.5mb - 42f
12:54 13 16 mph 1009.5mb - 42f
12:48 11 14 mph 1009.6mb 48f 42f
12:42 8 9 mph 1009.5mb 48f 42f
12:36 6 9 mph 1009.6mb 48f 42f
12:30 8 10 mph 1009.7mb 48f 42f
12:24 8 9 mph 1009.8mb 48f 42f
12:18 8
mph
1009.8mb 48f 42f
12:12 7 8 mph 1009.8mb 48f 42f
12:06 6 7 mph 1009.9mb 47f 42f
12:00 6 7 mph 1010mb 47f 41f
11:54 7 8 mph 1010.2mb 47f 41f
11:48 5 6 mph 1010.4mb 47f 41f
11:42 6 7 mph 1010.6mb 47f 41f
11:36 5 6 mph 1010.8mb 47f 41f
11:30 6 7 mph 1010.9mb 47f 41f
11:24 3 7 mph 1010.9mb 47f 41f
11:18 7 9 mph 1011.3mb 47f 41f
11:12 8 9 mph 1011.5mb 47f 41f
11:06 8 11 mph 1011.6mb 47f 41f
11:00 8 10 mph 1011.7mb 47f 41f
10:54 8 10 mph 1011.9mb 47f 41f
10:48 8 10 mph 1012.1mb 47f 41f
10:42 5 7 mph 1012.3mb 47f 41f
10:36 7 8 mph 1012.4mb 47f 40f
10:30 7 8 mph 1012.7mb 47f 40f
10:24 8 9 mph 1012.9mb 47f 40f
10:18 6 8 mph 1012.8mb 47f 40f
10:12 5 7 mph 1012.8mb 47f 40f
10:06 5 7 mph 1012.9mb 47f 39f
10:00 6 7 mph 1013.1mb 47f 39f
9:54 3 6 mph 1013.2mb 47f 39f
9:48 3 5 mph 1013.2mb 47f 39f
9:42 3
mph
1013.3mb 47f 39f
9:36 2 3 mph 1013.3mb 47f 39f
9:30 2 3 mph 1013.3mb 47f 38f
9:24 2 3 mph 1013.3mb 47f 38f
9:18 2 3 mph 1013.4mb 47f 38f
9:12 3
mph
1013.5mb 47f 38f
9:06 1 2 mph 1013.4mb 47f 38f
9:00 1 3 mph 1013.6mb 47f 38f
8:54 2 3 mph 1013.6mb 47f 38f
8:48 2 3 mph 1013.5mb 47f 38f
8:42 2 3 mph 1013.5mb 47f 38f
8:36  -  2 mph 1013.5mb 46f 38f
8:30 1 2 mph 1013.5mb 46f 38f
8:24  -  2 mph 1013.6mb 46f 38f
8:18 2
mph
1013.6mb 46f 38f
8:12 1 2 mph 1013.5mb 46f 38f
8:06 2
mph
1013.6mb 46f 38f
8:00 2 5 mph 1013.6mb 46f 38f
7:54 5 6 mph 1013.7mb 46f 38f
7:48 2 5 mph 1013.6mb 46f 38f
7:42 2 3 mph 1013.6mb 46f 38f
7:36 1 2 mph 1013.5mb 46f 38f
7:30  -  1 mph 1013.5mb 46f 38f
7:24  -  1 mph 1013.7mb 45f 38f
7:18  -  2 mph 1013.9mb 45f 38f
7:12 1 2 mph 1013.9mb 45f 38f
7:06 2
mph
1014mb 45f 38f
7:00  -  2 mph 1014mb 45f 38f
6:54 1 2 mph 1013.9mb 45f 38f
6:48 2 3 mph 1014.1mb 45f 38f
6:42 2 3 mph 1014mb 45f 38f
6:36 3 6 mph 1014mb 45f 38f
6:30 5 7 mph 1013.9mb 45f 39f
6:24 6 7 mph 1014mb 45f 39f
6:18 6 7 mph 1013.9mb 45f 39f
6:12 6 7 mph 1013.9mb 45f 39f
6:06 6 7 mph 1013.8mb 45f 39f
6:00 6 7 mph 1013.9mb 45f 39f
5:54 5 6 mph 1013.8mb 45f 39f
5:48 5 6 mph 1013.8mb 45f 39f
5:42 5 7 mph 1013.8mb 45f 38f
5:36 6 7 mph 1013.9mb 45f 38f
5:30 6 7 mph 1014mb 45f 38f
5:24 5 6 mph 1014.1mb 45f 38f
5:18 5 6 mph 1014.2mb 46f 38f
5:12 6 7 mph 1014.3mb 46f 38f
5:06 6 8 mph 1014.3mb 46f 38f
5:00 6 8 mph 1014.4mb 46f 38f
4:54 7 9 mph 1014.4mb 46f 37f
4:48 7 9 mph 1014.5mb 46f 37f
4:42 7 9 mph 1014.6mb 46f 37f
4:36 7 9 mph 1014.7mb 46f 37f
4:30 8 9 mph 1014.7mb 46f 37f
4:24 8 9 mph 1014.6mb 46f 37f
4:18 7 8 mph 1014.6mb 46f 37f
4:12 7 8 mph 1014.4mb 46f 37f
4:06 7 9 mph 1014.3mb 46f 37f
4:00 8 9 mph 1014.2mb 46f 38f
3:54 8 9 mph 1014.3mb 46f 38f
3:48 8 10 mph 1014.3mb 46f 38f
3:42 8 10 mph 1014.4mb 46f 38f
3:36 9 10 mph 1014.3mb 46f 38f
3:30 9 10 mph 1014.3mb 46f 38f
3:24 8 10 mph 1014.3mb 46f 38f
3:18 8 9 mph 1014.3mb 46f 38f
3:12 7 9 mph 1014.3mb 46f 38f
3:06 8 9 mph 1014.3mb 46f 38f
3:00 8 9 mph 1014.4mb 46f 39f
2:54 8 10 mph 1014.5mb 46f 39f
2:48 9 10 mph 1014.6mb 46f 39f
2:42 9 11 mph 1014.7mb 46f 39f
2:36 9 10 mph 1014.6mb 46f 39f
2:30 9 10 mph 1014.7mb 46f 39f
2:24 9
mph
1014.8mb 46f 39f
2:18 8 10 mph 1014.8mb 46f 39f
2:12 8 10 mph 1014.7mb 46f 39f
2:06 9 10 mph 1014.8mb 46f 39f
2:00 9 10 mph 1014.8mb 46f 39f
1:54 8 9 mph 1014.9mb 46f 39f
1:48 8 10 mph 1015mb 46f -
1:42 8 10 mph 1014.9mb 47f -
1:36 8 9 mph 1014.9mb 47f -
1:30 7 8 mph 1015mb 47f 39f
1:24 7 8 mph 1015mb 47f 39f
1:18 6 8 mph 1015.1mb 47f 39f
1:12 7 9 mph 1015.1mb 47f 39f
1:06 8 9 mph 1015.2mb 47f 39f
1:00 7 9 mph 1015.2mb 47f 39f
12:54 7 9 mph 1015.4mb 47f 39f
12:48 7 9 mph 1015.4mb 47f -
12:42 8 10 mph 1015.5mb 47f -
12:36 7 9 mph 1015.4mb 47f -
12:30 7 8 mph 1015.2mb 47f 39f
12:24 8 9 mph 1015.1mb 47f 39f
12:18 8 9 mph 1015.2mb 47f 39f
12:12 7 8 mph 1015mb 47f 39f
12:06 7 8 mph 1015.1mb 47f 40f
12:00 6 7 mph 1014.9mb 47f 40f
Mi 12/07 11:54 6 7 mph 1014.9mb 47f 40f
11:48 6 7 mph 1015mb 47f 40f
11:42 6 7 mph 1015mb 47f 40f
11:36 7
mph
1015.1mb 47f 40f
11:30 7 8 mph 1015.2mb 47f 40f
11:24 7 8 mph 1015.3mb 48f 40f
11:18 6 7 mph 1015.4mb 48f 40f
11:12 7
mph
1015.5mb 47f 40f
11:06 7
mph
1015.5mb 47f 40f
11:00 6 7 mph 1015.5mb 47f 40f
10:54 5 6 mph 1015.7mb 47f 40f
10:48 6
mph
1015.8mb 47f 40f
10:42 5 6 mph 1015.7mb 47f 40f
10:36 5 6 mph 1015.8mb 47f 40f
10:30 5 6 mph 1015.9mb 47f 41f
10:24 5 6 mph 1016mb 47f 41f
10:18 5 6 mph 1015.9mb 46f 42f
10:12 5
mph
1015.8mb 46f 42f
10:06 3 6 mph 1015.8mb 46f 42f
10:00 5 6 mph 1015.7mb 46f 42f
9:54 3 6 mph 1015.7mb 46f 42f
9:48 5 6 mph 1015.7mb 46f 42f
9:42 3 5 mph 1015.7mb 46f 42f
9:36 3 5 mph 1015.8mb 46f 42f
9:30 5 6 mph 1016mb 46f 42f
9:24 6
mph
1016mb 46f 42f
9:18 5 6 mph 1015.9mb 46f 42f
9:12 5
mph
1016.1mb 46f 42f
9:06 5 6 mph 1016mb 46f 42f
9:00 6 7 mph 1016.1mb 46f 42f
8:54 6
mph
1016.1mb 46f 43f
8:48 5 6 mph 1016.1mb 46f 43f
8:42 5 6 mph 1016.2mb 46f 42f
8:36 5 6 mph 1016.1mb 46f 43f
8:30 3 5 mph 1016.1mb 46f 43f
8:24 3 5 mph 1016.1mb 46f 43f
8:18 3 6 mph 1016.3mb 46f 42f
8:12 5 7 mph 1016.3mb 46f 42f
8:06 6 7 mph 1016.4mb 46f 42f
8:00 6 7 mph 1016.3mb 46f 42f
7:54 2 3 mph 1016mb 46f 42f
7:48 2 3 mph 1016mb 46f 42f
7:42 3
mph
1016mb 46f 42f
7:36 2 5 mph 1016.2mb 46f 42f
7:30 5
mph
1016.3mb 46f 42f
7:24 3 5 mph 1016.3mb 46f 42f
7:18 3 5 mph 1016.3mb 46f 42f
7:12 3 5 mph 1016.3mb 46f 42f
7:06 3 5 mph 1016.3mb 46f 42f
7:00 3 5 mph 1016.3mb 46f 42f
6:54 3
mph
1016.3mb 46f 42f
6:48 3 5 mph 1016.2mb 46f 42f
6:42 3
mph
1016.2mb 46f 42f
6:36 3 5 mph 1016.2mb 46f 42f
6:30 3 5 mph 1016.2mb 46f 42f
6:24 3
mph
1016.2mb 46f 42f
6:18 3
mph
1016.2mb 46f 42f
6:12 3 5 mph 1016.3mb 46f 42f
6:06 2 3 mph 1016.3mb 46f 42f
6:00  -  1 mph 1016.1mb 46f 42f
5:54 1 2 mph 1016mb 46f 42f
5:48 2
mph
1016mb 46f 42f
5:42 1 2 mph 1015.9mb 46f 42f
5:36 2
mph
1015.8mb 46f 42f
5:30  -  1 mph 1015.7mb 46f 42f
5:24  -  1 mph 1015.5mb 46f 42f
5:18  -  1 mph 1015.4mb 46f 42f
5:12  -  2 mph 1015.3mb 46f 42f
5:06 1 2 mph 1015.2mb 46f 42f
5:00  -  1 mph 1015.3mb 46f 42f
4:54 1
mph
1015.2mb 46f 42f
4:48  -  mph 1015.1mb 46f 42f
4:42  -  1 mph 1015mb 46f 42f
4:36  -  1 mph 1015mb 46f 42f
4:30 1
mph
1015mb 46f 42f
4:24  -  1 mph 1015mb 46f 42f
4:18 1 3 mph 1014.9mb 46f 42f
4:12 1 2 mph 1014.8mb 46f 42f
4:06 2
mph
1014.8mb 46f 42f
4:00 2
mph
1014.7mb 46f 42f
3:54 2 3 mph 1014.8mb 46f 42f
3:48 3
mph
1014.7mb 46f 42f
3:42 3 5 mph 1014.7mb 46f 42f
3:36 5
mph
1014.6mb 46f 42f
3:30 1 2 mph 1014.3mb 46f 42f
3:24  -  1 mph 1014.3mb 46f 42f
3:18  -  1 mph 1014.2mb 46f 42f
3:12  -  2 mph 1014.2mb 46f 42f
3:06 2
mph
1014.2mb 46f 42f
3:00 2 3 mph 1014.1mb 46f 42f
2:54 3
mph
1014.2mb 46f 42f
2:48 2 3 mph 1014.2mb 46f 42f
2:42 2 3 mph 1014mb 46f 42f
2:36 1 2 mph 1013.9mb 46f 42f
2:30 1 2 mph 1013.7mb 46f 42f
2:24 2 3 mph 1013.7mb 46f 41f
2:18 2 3 mph 1013.5mb 46f 41f
2:12 3
mph
1013.7mb 46f 41f
2:06 2 3 mph 1013.7mb 46f 41f
2:00 2 5 mph 1013.7mb 46f 41f
1:54 3
mph
1013.8mb 46f 41f
1:48 3
mph
1013.8mb 46f 41f
1:42 3
mph
1013.7mb 46f 41f
1:36 2 5 mph 1013.7mb 46f 41f
1:30 2 3 mph 1013.6mb 46f 41f
1:24 2 3 mph 1013.5mb 46f 42f
1:18 3 5 mph 1013.4mb 46f 42f
1:12 2 5 mph 1013.6mb 46f 42f
1:06 3
mph
1013.5mb 46f 42f
1:00 2 5 mph 1013.8mb 46f 42f
12:54 3
mph
1013.8mb 47f 44f
12:48 2
mph
1013.9mb 47f 44f
12:42 2 3 mph 1014mb 47f 44f
12:36 2 3 mph 1013.9mb 47f 43f
12:30 2 3 mph 1013.9mb 47f 43f
12:24  -  1 mph 1014mb 47f 42f
12:18  -  2 mph 1014.1mb 47f 41f
12:12 1 2 mph 1014.2mb 47f 41f
12:06  -  3 mph 1014.3mb 47f 42f
12:00 3
mph
1014.3mb 47f 42f
11:54 2
mph
1014.5mb 47f 42f
11:48  -  2 mph 1014.6mb 47f 42f
11:42  -  5 mph 1014.8mb 46f 42f
11:36 2 5 mph 1014.7mb 46f 42f
11:30 3 5 mph 1014.7mb 46f 41f
11:24 5
mph
1014.9mb 46f 40f
11:18 5 6 mph 1015mb 46f 40f
11:12 5 7 mph 1015mb 46f 41f
11:06 6 7 mph 1014.9mb 46f 40f
11:00 6 7 mph 1014.9mb 46f 40f
10:54 6 7 mph 1015.1mb 46f 40f
10:48 6 8 mph 1015.2mb 45f 39f
10:42 7 8 mph 1015.3mb 45f 39f
10:36 8
mph
1015.4mb 45f 39f
10:30 7 8 mph 1015.6mb 45f 39f
10:24 8
mph
1015.6mb 45f 39f
10:18 7 9 mph 1015.6mb 45f 39f
10:12 8 9 mph 1015.7mb 45f 39f
10:06 8 9 mph 1015.8mb 45f 39f
10:00 9 10 mph 1015.6mb 45f 39f
9:54 8 11 mph 1015.5mb 45f 39f
9:48 9 10 mph 1015.4mb 45f 38f
9:42 9 10 mph 1015.3mb 45f 38f
9:36 9 11 mph 1015.1mb 45f 39f
9:30 10 11 mph 1015mb 45f 38f
9:24 9 11 mph 1014.9mb 45f 38f
9:18 10 14 mph 1014.9mb 45f 38f
9:12 11 14 mph 1014.8mb 45f 38f
9:06 13
mph
1014.8mb 45f 38f
9:00 11 13 mph 1014.8mb 45f 38f
8:54 11 14 mph 1014.8mb 45f 38f
8:48 11 13 mph 1014.7mb 45f 38f
8:42 10 13 mph 1014.8mb 45f 38f
8:36 10 11 mph 1014.7mb 45f 38f
8:30 9 11 mph 1014.6mb 45f 38f
8:24 9 13 mph 1014.6mb 45f 38f
8:18 8 10 mph 1014.5mb 45f 38f
8:12 9 11 mph 1014.6mb 45f 38f
8:06 9 11 mph 1014.6mb 45f 38f
8:00 10 11 mph 1014.5mb 45f 38f
7:54 10 13 mph 1014.6mb 45f 38f
7:48 11 14 mph 1014.5mb 46f 38f
7:42 13 14 mph 1014.5mb 46f 38f
7:36 14
mph
1014.5mb 46f 38f
7:30 13 14 mph 1014.5mb 46f 38f
7:24 11 13 mph 1014.4mb 46f 38f
7:18 11 14 mph 1014.3mb 46f 38f
7:12 10 11 mph 1014.1mb 46f 38f
7:06 10 13 mph 1014mb 46f 38f
7:00 9 11 mph 1014mb 45f 38f
6:54 9 11 mph 1013.9mb 45f 38f
6:48 8 10 mph 1013.7mb 45f 38f
6:42 8 9 mph 1013.5mb 45f 38f
6:36 7 9 mph 1013.3mb 45f 38f
6:30 6 7 mph 1013.1mb 45f 38f
6:24 6 8 mph 1012.8mb 45f 38f
6:18 6 8 mph 1012.8mb 45f 38f
6:12 7 8 mph 1012.8mb 45f 38f
6:06 5 8 mph 1012.9mb 45f 38f
6:00 6 8 mph 1012.9mb 45f 38f
5:54 7 8 mph 1013mb 45f 38f
5:48 7 10 mph 1013.1mb 45f 38f
5:42 8 9 mph 1013.1mb 45f 38f
5:36 8 9 mph 1013.2mb 45f 38f
5:30 8 10 mph 1013.2mb 45f 38f
5:24 8 10 mph 1013.4mb 45f 38f
5:18 7 9 mph 1013.6mb 45f 38f
5:12 7 8 mph 1013.5mb 45f 38f
5:06 7 9 mph 1013.2mb 45f 38f
5:00 8 10 mph 1012.9mb 45f 38f
4:54 8 10 mph 1012.6mb 45f 38f
4:48 9 11 mph 1012.3mb 45f 38f
4:42 8 10 mph 1012.1mb 45f 38f
4:36 9 11 mph 1012.1mb 45f 38f
4:30 9 13 mph 1012mb 45f 38f
4:24 9 11 mph 1011.9mb 45f 37f
4:18 8 11 mph 1012mb 45f 38f
4:12 9 11 mph 1012mb 45f 37f
4:06 9 11 mph 1011.9mb 45f 37f
4:00 7 10 mph 1012.1mb 45f 38f
3:54 10 13 mph 1012.1mb 45f 38f
3:48 13 15 mph 1012mb 45f 38f
3:42 10 14 mph 1012.2mb 45f 37f
3:36 13 15 mph 1012.2mb 45f 38f
3:30 11 14 mph 1012.3mb 46f 38f
3:24 11 13 mph 1012.5mb 46f 38f
3:18 10 13 mph 1012.5mb 46f 38f
3:12 10 14 mph 1012.3mb 46f 38f
3:06 10 14 mph 1012.7mb 46f 38f
3:00 11 14 mph 1012.7mb 46f 38f
2:54 10 14 mph 1012.9mb 46f 38f
2:48 10 14 mph 1013.2mb 46f 38f
2:42 11 14 mph 1013.4mb 46f 38f
2:36 13 15 mph 1013.5mb 46f 38f
2:30 10 14 mph 1013.4mb 46f 38f
2:24 11 17 mph 1013.3mb 46f 38f
2:18 13 15 mph 1013.2mb 46f 38f
2:12 14 17 mph 1013.4mb 45f 38f
2:06 13 18 mph 1013.3mb 45f 39f
2:00 16 20 mph 1013.2mb 45f 39f
1:54 15 17 mph 1013.3mb 45f 39f
1:48 16 20 mph 1013.2mb 45f 39f
1:42 16 18 mph 1013mb 46f 39f
1:36 13 16 mph 1013mb 46f 39f
1:30 15 16 mph 1013.1mb 46f 39f
1:24 10 14 mph 1013.2mb 46f 39f
1:18 9 11 mph 1013.1mb 46f 40f
1:12 9 13 mph 1013.2mb 46f 39f
1:06 10 13 mph 1013.2mb 46f 40f
1:00 10 13 mph 1013.2mb 46f 39f
12:54 9 13 mph 1013.4mb 46f 40f
12:48 9 13 mph 1013.2mb 46f 40f
12:42 10 13 mph 1013.1mb 46f 39f
12:36 10 14 mph 1013mb 46f 39f
12:30 10 13 mph 1013.1mb 46f 39f
12:24 10 14 mph 1013mb 46f 39f
12:18 10 14 mph 1013.1mb 46f 39f
12:12 10 15 mph 1013.2mb 46f 39f
12:06 14 15 mph 1013mb 46f 39f
12:00 13 16 mph 1013.2mb 46f 39f
Di 12/06 11:54 11 14 mph 1013.4mb 46f 39f
11:48 11 14 mph 1013.7mb 46f 39f
11:42 10 11 mph 1014.1mb 46f 39f
11:36 9 11 mph 1014.4mb 46f 39f
11:30 8 9 mph 1014.6mb 45f 39f
11:24 8 9 mph 1014.7mb 45f 39f
11:18 8 10 mph 1014.7mb 45f 39f
11:12 8 9 mph 1014.8mb 45f 39f
11:06 8 10 mph 1015mb 45f 39f
11:00 8 9 mph 1015.1mb 45f 39f
10:54 8 9 mph 1015.3mb 45f 39f
10:48 7 8 mph 1015.4mb 45f 39f
10:42 7 8 mph 1015.4mb 45f 39f
10:36 8 9 mph 1015.4mb 45f 39f
10:30 7 9 mph 1015.4mb 45f 39f
10:24 8 9 mph 1015.3mb 45f 39f
10:18 8 9 mph 1015.3mb 45f 39f
10:12 8 10 mph 1015.3mb 45f 39f
10:06 8 9 mph 1015.3mb 46f 39f
10:00 8 10 mph 1015.3mb 46f 39f
9:54 8 9 mph 1015.4mb 46f 39f
9:48 8 10 mph 1015.4mb 46f 39f
9:18 8
mph
1015.8mb 45f 39f
9:12 7 8 mph 1015.9mb 45f 39f
9:06 6 7 mph 1016mb 46f 39f
9:00 6 7 mph 1016.1mb 46f 40f
8:54 6
mph
1016.2mb 46f 40f
8:48 5
mph
1016.4mb 46f 40f
7:54 2 3 mph 1016.3mb 46f 40f
7:48 2 3 mph 1016.2mb 46f 40f
7:30 3 6 mph 1016.1mb 46f 40f
7:24 5 7 mph 1016mb 46f 40f
7:18 5 6 mph 1016mb 46f 40f
7:12 5 6 mph 1016mb 46f 40f
7:06 5 6 mph 1016.1mb 46f 40f
7:00 5 7 mph 1016.1mb 46f 40f
6:54 6 7 mph 1016.1mb 46f 40f
6:48 6 7 mph 1016.2mb 46f 40f
6:42 6 8 mph 1016.1mb 46f 40f
6:36 7 9 mph 1016.1mb 46f 40f
6:30 8 10 mph 1016.1mb 46f 40f
6:24 8 9 mph 1016mb 46f 40f
6:18 8 9 mph 1016.1mb 46f 40f
6:12 9 13 mph 1016.1mb 46f 41f
6:06 9 11 mph 1016mb 46f 41f
6:00 10 11 mph 1016.1mb 45f 41f
5:54 10 13 mph 1016.3mb 45f 41f
5:48 10 14 mph 1016.3mb 45f 41f
5:42 11 14 mph 1016.2mb 45f 41f
5:36 14 15 mph 1016mb 45f 41f
5:30 11 15 mph 1016mb 45f 41f
5:24 13 16 mph 1016mb 45f 41f
5:18 15 16 mph 1015.9mb 45f 41f
5:12 11 14 mph 1015.9mb 45f 42f
5:06 11 14 mph 1015.8mb 46f 42f
5:00 9 11 mph 1015.8mb 46f 42f
4:54 11 13 mph 1015.8mb 46f 42f
4:48 11 15 mph 1015.7mb 46f 42f
4:42 10 14 mph 1015.7mb 46f 42f
4:36 11 14 mph 1015.7mb 46f 42f
4:30 13 14 mph 1015.7mb 46f 43f
4:24 7 8 mph 1015.7mb 46f 43f
4:18 7 8 mph 1015.7mb 46f 43f
4:12 6 7 mph 1015.7mb 46f 43f
4:06 6 8 mph 1015.9mb 46f 43f
4:00 7 8 mph 1015.8mb 46f 43f
3:54 8 10 mph 1015.9mb 46f 43f
3:48 9
mph
1015.9mb 46f 43f
3:42 8 9 mph 1016.1mb 46f 43f
3:36 9 10 mph 1016.3mb 46f 43f
3:30 9 10 mph 1016.6mb 46f 43f
3:24 8 10 mph 1016.7mb 46f 43f
3:18 8 9 mph 1016.8mb 46f 44f
3:12 6 9 mph 1016.9mb 46f 44f
3:06 7 9 mph 1017mb 46f 44f
3:00 6 7 mph 1017.1mb 46f 44f
2:54 7 9 mph 1017.3mb 46f 44f
2:48 8 9 mph 1017.4mb 46f 44f
2:42 5 7 mph 1017.5mb 46f 44f
2:36 6 9 mph 1017.4mb 46f 44f
2:30 7 9 mph 1017.4mb 46f 44f
2:24 7 9 mph 1017.3mb 46f 44f
2:18 8 10 mph 1017.3mb 46f 44f
2:12 7 9 mph 1017.3mb 46f 44f
2:06 8 9 mph 1017.3mb 46f 44f
2:00 5 6 mph 1017.5mb 46f 45f
1:54 2 3 mph 1017.7mb 46f 45f
1:48 1 2 mph 1017.9mb 46f 45f
1:30 6 8 mph 1017.9mb 46f 44f
1:24 6 7 mph 1017.7mb 46f 44f
1:18 6 7 mph 1017.8mb 46f 46f
1:12 6 7 mph 1018mb 46f 46f
1:06 6 7 mph 1018.1mb 46f 45f
1:00 3 9 mph 1018.1mb 46f 45f
12:54 5 8 mph 1018.1mb 46f 47f
12:48 9 11 mph 1018mb 46f 45f